TimeAEST,TemperatureF,Dew PointF,Humidity,Sea Level PressureIn,VisibilityMPH,Wind Direction,Wind SpeedMPH,Gust SpeedMPH,PrecipitationIn,Events,Conditions,WindDirDegrees,DateUTC
12:00 AM,71,57,52,30.10,,ESE,20.7,,,,,120,2012-10-04 14:00:00
12:00 AM,71.6,57.2,60,30.09,-9999.0,ESE,20.7,-,N/A,,Unknown,120,2012-10-04 14:00:00
12:30 AM,71.6,57.2,60,30.09,-9999.0,ESE,20.7,-,N/A,,Unknown,120,2012-10-04 14:30:00
1:00 AM,71.6,55.4,57,30.09,-9999.0,ESE,20.7,-,N/A,,Unknown,120,2012-10-04 15:00:00
1:30 AM,71.6,57.2,60,30.06,-9999.0,ESE,25.3,-,N/A,,Unknown,110,2012-10-04 15:30:00
2:00 AM,71.6,59.0,64,30.06,-9999.0,ESE,20.7,-,N/A,,Unknown,120,2012-10-04 16:00:00
2:30 AM,71.6,57.2,60,30.06,-9999.0,ESE,24.2,-,N/A,,Unknown,120,2012-10-04 16:30:00
3:00 AM,71,58,55,30.06,,SE,23.0,,,,,130,2012-10-04 17:00:00
3:00 AM,71.6,59.0,64,30.06,-9999.0,SE,23.0,-,N/A,,Unknown,130,2012-10-04 17:00:00
3:30 AM,71.6,59.0,64,30.06,-9999.0,SE,24.2,-,N/A,,Unknown,130,2012-10-04 17:30:00
4:00 AM,71.6,59.0,64,30.06,-9999.0,SE,25.3,-,N/A,,Unknown,130,2012-10-04 18:00:00
4:30 AM,71.6,59.0,64,30.06,-9999.0,SE,24.2,-,N/A,,Unknown,130,2012-10-04 18:30:00
5:00 AM,71.6,59.0,64,30.06,-9999.0,SE,26.5,-,N/A,,Unknown,130,2012-10-04 19:00:00
5:30 AM,71.6,59.0,64,30.09,-9999.0,SE,28.8,-,N/A,,Unknown,130,2012-10-04 19:30:00
6:00 AM,72,60,57,30.09,,SE,28.8,,,,,130,2012-10-04 20:00:00
6:00 AM,71.6,60.8,69,30.09,-9999.0,SE,28.8,-,N/A,,Unknown,130,2012-10-04 20:00:00
6:30 AM,71.6,59.0,64,30.09,-9999.0,SE,25.3,-,N/A,,Unknown,130,2012-10-04 20:30:00
7:00 AM,73.4,59.0,61,30.12,-9999.0,ESE,26.5,-,N/A,,Unknown,120,2012-10-04 21:00:00
7:30 AM,73.4,59.0,61,30.12,-9999.0,ESE,24.2,-,N/A,,Unknown,120,2012-10-04 21:30:00
8:00 AM,73.4,59.0,61,30.12,-9999.0,ESE,25.3,-,N/A,,Unknown,120,2012-10-04 22:00:00
8:30 AM,73.4,59.0,61,30.15,-9999.0,ESE,23.0,-,N/A,,Unknown,120,2012-10-04 22:30:00
9:00 AM,76,59,46,30.15,,ESE,27.6,,,,,110,2012-10-04 23:00:00
9:00 AM,75.2,59.0,57,30.15,-9999.0,ESE,27.6,-,N/A,,Unknown,110,2012-10-04 23:00:00
9:30 AM,77.0,57.2,50,30.15,-9999.0,ESE,24.2,-,N/A,,Unknown,120,2012-10-04 23:30:00
10:00 AM,75.2,57.2,53,30.15,-9999.0,ESE,23.0,-,N/A,,Unknown,120,2012-10-05 00:00:00
11:00 AM,77.0,59.0,54,30.12,-9999.0,ESE,23.0,-,N/A,,Unknown,120,2012-10-05 01:00:00
11:30 AM,77.0,59.0,54,30.12,-9999.0,ESE,23.0,-,N/A,,Unknown,120,2012-10-05 01:30:00
12:00 PM,76,59,46,30.13,,ESE,21.9,,,,,120,2012-10-05 02:00:00
12:00 PM,77.0,59.0,54,30.12,-9999.0,ESE,21.9,-,N/A,,Unknown,120,2012-10-05 02:00:00
12:30 PM,75.2,57.2,53,30.12,-9999.0,ESE,24.2,-,N/A,,Unknown,120,2012-10-05 02:30:00
1:00 PM,77.0,59.0,54,30.09,-9999.0,ESE,23.0,-,N/A,,Unknown,120,2012-10-05 03:00:00
1:30 PM,77.0,59.0,54,30.09,-9999.0,ESE,20.7,-,N/A,,Unknown,120,2012-10-05 03:30:00
2:00 PM,75.2,57.2,53,30.09,-9999.0,ESE,20.7,-,N/A,,Unknown,120,2012-10-05 04:00:00
2:30 PM,75.2,59.0,57,30.06,-9999.0,ESE,20.7,-,N/A,,Unknown,120,2012-10-05 04:30:00
3:00 PM,75,58,46,30.08,,SE,20.7,,,,,130,2012-10-05 05:00:00
3:00 PM,75.2,59.0,57,30.06,-9999.0,SE,20.7,-,N/A,,Unknown,130,2012-10-05 05:00:00
3:30 PM,75.2,59.0,57,30.06,-9999.0,ESE,19.6,-,N/A,,Unknown,120,2012-10-05 05:30:00
4:00 PM,73.4,59.0,61,30.06,-9999.0,ESE,19.6,-,N/A,,Unknown,120,2012-10-05 06:00:00
4:30 PM,73.4,59.0,61,30.06,-9999.0,ESE,21.9,-,N/A,,Unknown,120,2012-10-05 06:30:00
5:00 PM,73.4,59.0,61,30.06,-9999.0,ESE,21.9,-,N/A,,Unknown,120,2012-10-05 07:00:00
5:30 PM,71.6,59.0,64,30.06,-9999.0,SE,20.7,-,N/A,,Unknown,130,2012-10-05 07:30:00
6:00 PM,72,60,56,30.09,,SE,21.9,,,,,130,2012-10-05 08:00:00
6:00 PM,71.6,59.0,64,30.09,-9999.0,SE,21.9,-,N/A,,Unknown,130,2012-10-05 08:00:00
6:30 PM,71.6,60.8,69,30.09,-9999.0,ESE,20.7,-,N/A,,Unknown,120,2012-10-05 08:30:00
7:00 PM,71.6,59.0,64,30.09,-9999.0,SE,20.7,-,N/A,,Unknown,130,2012-10-05 09:00:00
7:30 PM,71.6,60.8,69,30.09,-9999.0,SE,19.6,-,N/A,,Unknown,130,2012-10-05 09:30:00
8:00 PM,71.6,59.0,64,30.12,-9999.0,SE,20.7,-,N/A,,Unknown,130,2012-10-05 10:00:00
8:30 PM,71.6,60.8,69,30.12,-9999.0,SE,18.4,-,N/A,,Unknown,130,2012-10-05 10:30:00
9:00 PM,71,60,60,30.13,,SE,19.6,,,,,130,2012-10-05 11:00:00
9:00 PM,71.6,60.8,69,30.12,-9999.0,SE,19.6,-,N/A,,Unknown,130,2012-10-05 11:00:00
9:30 PM,71.6,60.8,69,30.12,-9999.0,SE,18.4,-,N/A,,Unknown,130,2012-10-05 11:30:00
10:00 PM,71.6,60.8,69,30.12,-9999.0,SE,19.6,-,N/A,,Unknown,130,2012-10-05 12:00:00
10:30 PM,71.6,60.8,69,30.12,-9999.0,SE,17.3,-,N/A,,Unknown,130,2012-10-05 12:30:00
11:00 PM,71.6,62.6,73,30.12,-9999.0,SE,16.1,-,N/A,,Unknown,130,2012-10-05 13:00:00
11:30 PM,71.6,60.8,69,30.12,-9999.0,SE,15.0,-,N/A,,Unknown,130,2012-10-05 13:30:00